QPF
0.00 0.00 0.00 0.00 0.00 0.00 0.00 0.00 0.00 0.00 0.00 0.00 0.00 0.00 0.00 0.00 0.00 0.00 0.00 0.00 0.00 0.00 0.00 0.00 0.00 0.00 0.00 0.00 0.00 0.00 0.00 0.00 0.00 0.00 0.00 0.00 0.00 0.00 0.00 0.00 0.00 0.00 0.00 0.00
0.00 0.00 0.00 0.00 0.00 0.00 0.00 0.00 0.00 0.00 0.00 0.00 0.00 0.00 0.00 0.00 0.00 0.00 0.00 0.00 0.00 0.00 0.00 0.00 0.00 0.00 0.00 0.00 0.00 0.00 0.00 0.00 0.00 0.00 0.00 0.00 0.00 0.00 0.00 0.00 0.00 0.00 0.00 0.00
0.00 0.00 0.00 0.00 0.00 0.00 0.00 0.00 0.00 0.00 0.00 0.00 0.00 0.00 0.00 0.00 0.00 0.00 0.00 0.00 0.00 0.00 0.00 0.00 0.00 0.00 0.00 0.00 0.00 0.00 0.00 0.00 0.00 0.00 0.00 0.00 0.00 0.00 0.00 0.00 0.00 0.00 0.00 0.00
0.00 0.00 0.00 0.00 0.00 0.00 0.00 0.00 0.00 0.00 0.00 0.00 0.00 0.00 0.00 0.00 0.00 0.00 0.00 0.00 0.00 0.00 0.00 0.00 0.00 0.00 0.00 0.00 0.00 0.00 0.00 0.00 0.00 0.00 0.00 0.00 0.00 0.00 0.00 0.00 0.00 0.00 0.00 0.00
0.00 0.00 0.00 0.00 0.00 0.00 0.00 0.00 0.00 0.00 0.00 0.00 0.00 0.00 0.00 0.00 0.00 0.00 0.00 0.00 0.00 0.00 0.00 0.00 0.00 0.00 0.00 0.00 0.00 0.00 0.00 0.00 0.00 0.00 0.00 0.00 0.00 0.00 0.00 0.00 0.00 0.00 0.00 0.00
0.00 0.00 0.00 0.00 0.00 0.00 0.00 0.00 0.00 0.00 0.00 0.00 0.00 0.00 0.00 0.00 0.00 0.00 0.00 0.00 0.00 0.00 0.00 0.00 0.00 0.00 0.00 0.00 0.00 0.00 0.00 0.00 0.00 0.00 0.00 0.00 0.00 0.00 0.00 0.00 0.00 0.00 0.00 0.00
0.00 0.00 0.00 0.00 0.00 0.00 0.00 0.00 0.00 0.00 0.00 0.00 0.00 0.00 0.00 0.00 0.00 0.00 0.00 0.00 0.00 0.00 0.00 0.00 0.00 0.00 0.00 0.00 0.00 0.00 0.00 0.00 0.00 0.00 0.00 0.00 0.00 0.00 0.00 0.00 0.00 0.00 0.00 0.00
0.00 0.00 0.00 0.00 0.00 0.00 0.01 0.00 0.00 0.00 0.00 0.00 0.00 0.00 0.00 0.00 0.00 0.00 0.00 0.00 0.00 0.00 0.00 0.00 0.00 0.00 0.00 0.00 0.00 0.00 0.00 0.00 0.00 0.00 0.00 0.00 0.00 0.00 0.00 0.00 0.00 0.00 0.00 0.00
0.00 0.00 0.00 0.00 0.00 0.00 0.00 0.00 0.00 0.00 0.00 0.00 0.00 0.00 0.00 0.00 0.00 0.00 0.00 0.00 0.00 0.00 0.00 0.00 0.00 0.00 0.00 0.00 0.00 0.00 0.00 0.00 0.00 0.00 0.00 0.00 0.00 0.00 0.00 0.00 0.00 0.00 0.00 0.00
0.00 0.00 0.00 0.00 0.00 0.00 0.00 0.00 0.00 0.00 0.00 0.00 0.00 0.00 0.00 0.00 0.00 0.00 0.00 0.00 0.00 0.00 0.00 0.00 0.00 0.00 0.00 0.00 0.00 0.00 0.00 0.00 0.00 0.00 0.00 0.00 0.00 0.00 0.00 0.00 0.00 0.00 0.00 0.00
0.00 0.00 0.00 0.00 0.00 0.00 0.00 0.00 0.00 0.00 0.00 0.00 0.00 0.00 0.00 0.00 0.00 0.00 0.00 0.00 0.00 0.00 0.00 0.00 0.00 0.00 0.00 0.00 0.00 0.00 0.00 0.00 0.00 0.00 0.00 0.00 0.00 0.00 0.00 0.00 0.00 0.00 0.00 0.00
0.00 0.00 0.00 0.00 0.00 0.00 0.00 0.00 0.00 0.00 0.00 0.00 0.00 0.00 0.00 0.00 0.00 0.00 0.00 0.00 0.00 0.00 0.00 0.00 0.00 0.00 0.00 0.00 0.00 0.00 0.00 0.00 0.00 0.00 0.00 0.00 0.00 0.00 0.00 0.00 0.00 0.00 0.00 0.00
0.00 0.00 0.00 0.00 0.00 0.00 0.00 0.00 0.00 0.00 0.00 0.00 0.00 0.00 0.00 0.00 0.00 0.00 0.00 0.00 0.00 0.00 0.00 0.00 0.00 0.00 0.00 0.00 0.00 0.00 0.00 0.00 0.00 0.00 0.00 0.00 0.00 0.00 0.00 0.00 0.00 0.00 0.00 0.00
0.00 0.00 0.00 0.00 0.00 0.00 0.00 0.00 0.00 0.00 0.00 0.00 0.00 0.00 0.00 0.00 0.00 0.00 0.00 0.00 0.00 0.00 0.00 0.00 0.00 0.00 0.00 0.00 0.00 0.00 0.00 0.00 0.00 0.00 0.00 0.00 0.00 0.00 0.00 0.00 0.00 0.00 0.00 0.00
0.00 0.00 0.00 0.00 0.00 0.00 0.00 0.00 0.00 0.00 0.00 0.00 0.00 0.00 0.00 0.00 0.00 0.00 0.00 0.00 0.00 0.00 0.00 0.00 0.00 0.00 0.00 0.00 0.00 0.00 0.00 0.00 0.00 0.00 0.00 0.00 0.00 0.00 0.00 0.00 0.00 0.00 0.00 0.00
0.00 0.00 0.00 0.00 0.00 0.00 0.00 0.00 0.00 0.00 0.00 0.00 0.00 0.00 0.00 0.00 0.00 0.00 0.00 0.00 0.00 0.00 0.00 0.00 0.00 0.00 0.00 0.00 0.00 0.00 0.00 0.00 0.00 0.00 0.00 0.00 0.00 0.00 0.00 0.00 0.00 0.00 0.00 0.00
0.00 0.00 0.00 0.00 0.00 0.00 0.00 0.00 0.00 0.00 0.00 0.00 0.00 0.00 0.00 0.00 0.00 0.00 0.00 0.00 0.00 0.00 0.00 0.00 0.00 0.00 0.00 0.00 0.00 0.00 0.00 0.00 0.00 0.00 0.00 0.00 0.00 0.00 0.00 0.00 0.00 0.00 0.00 0.00
0.00 0.00 0.00 0.00 0.00 0.00 0.00 0.00 0.00 0.00 0.00 0.00 0.00 0.00 0.00 0.00 0.00 0.00 0.00 0.00 0.00 0.00 0.00 0.00 0.00 0.00 0.00 0.00 0.00 0.00 0.00 0.00 0.00 0.00 0.00 0.00 0.00 0.00 0.00 0.00 0.00 0.00 0.00 0.00
0.00 0.00 0.00 0.00 0.00 0.00 0.00 0.00 0.00 0.00 0.00 0.00 0.00 0.00 0.00 0.00 0.00 0.00 0.00 0.00 0.00 0.00 0.00 0.00 0.00 0.00 0.00 0.00 0.00 0.00 0.00 0.00 0.00 0.00 0.00 0.00 0.00 0.00 0.00 0.00 0.00 0.00 0.00 0.00
0.00 0.00 0.00 0.00 0.00 0.00 0.00 0.00 0.00 0.00 0.00 0.00 0.00 0.00 0.00 0.00 0.00 0.00 0.00 0.00 0.00 0.00 0.00 0.00 0.00 0.00 0.00 0.00 0.00 0.00 0.00 0.00 0.00 0.00 0.00 0.00 0.00 0.00 0.00 0.00 0.00 0.00 0.00 0.00
0.00 0.00 0.00 0.00 0.00 0.00 0.00 0.00 0.00 0.00 0.00 0.00 0.00 0.00 0.00 0.00 0.00 0.00 0.00 0.00 0.00 0.00 0.00 0.00 0.00 0.00 0.00 0.00 0.00 0.00 0.00 0.00 0.00 0.00 0.00 0.00 0.00 0.00 0.00 0.00 0.00 0.00 0.00 0.00
0.00 0.00 0.00 0.00 0.00 0.00 0.00 0.00 0.00 0.00 0.00 0.00 0.00 0.00 0.00 0.00 0.00 0.00 0.00 0.00 0.00 0.00 0.00 0.00 0.00 0.00 0.00 0.00 0.00 0.00 0.00 0.00 0.00 0.00 0.00 0.00 0.00 0.00 0.00 0.00 0.00 0.00 0.00 0.00
0.00 0.00 0.00 0.00 0.00 0.00 0.00 0.00 0.00 0.00 0.00 0.00 0.00 0.00 0.00 0.00 0.00 0.00 0.00 0.00 0.00 0.00 0.00 0.00 0.00 0.00 0.00 0.00 0.00 0.00 0.00 0.00 0.00 0.00 0.00 0.00 0.00 0.00 0.00 0.00 0.00 0.00 0.00 0.00
0.00 0.00 0.00 0.00 0.00 0.00 0.00 0.00 0.00 0.00 0.00 0.00 0.00 0.00 0.00 0.00 0.00 0.00 0.00 0.00 0.00 0.00 0.00 0.00 0.00 0.00 0.00 0.00 0.00 0.00 0.00 0.00 0.00 0.00 0.00 0.00 0.00 0.00 0.00 0.00 0.00 0.00 0.00 0.00
0.00 0.00 0.00 0.00 0.00 0.00 0.00 0.00 0.00 0.00 0.00 0.00 0.00 0.00 0.00 0.00 0.00 0.00 0.00 0.00 0.00 0.00 0.00 0.00 0.00 0.00 0.00 0.00 0.00 0.00 0.00 0.00 0.00 0.00 0.00 0.00 0.00 0.00 0.00 0.00 0.00 0.00 0.00 0.00
0.00 0.00 0.00 0.00 0.00 0.00 0.00 0.00 0.00 0.00 0.00 0.00 0.00 0.00 0.00 0.00 0.00 0.00 0.00 0.00 0.00 0.00 0.00 0.00 0.00 0.00 0.00 0.00 0.00 0.00 0.00 0.00 0.00 0.00 0.00 0.00 0.00 0.00 0.00 0.00 0.00 0.00 0.00 0.00
0.00 0.00 0.00 0.00 0.00 0.00 0.00 0.00 0.00 0.00 0.00 0.00 0.00 0.00 0.00 0.00 0.00 0.00 0.00 0.00 0.00 0.00 0.00 0.00 0.00 0.00 0.00 0.00 0.00 0.00 0.00 0.00 0.00 0.00 0.00 0.00 0.00 0.00 0.00 0.00 0.00 0.00 0.00 0.00
MSLP
1009.21 1009.16 1009.77 1010.52 1010.27 1010.32 1010.88 1011.35 1012.01 1011.58 1011.59 1012.64 1013.70 1013.50 1012.10 1011.01 1010.17 1009.47 1009.64 1010.05 1010.67 1011.44 1012.35 1013.43 1014.05 1014.53 1014.72 1014.68 1014.70 1015.28 1015.84 1016.77 1017.32 1016.95 1016.39 1016.11 1016.36 1017.30 1018.73 1021.03 1022.51 1023.23 1022.88 1020.91
1008.96 1008.88 1009.61 1010.14 1009.92 1009.72 1010.48 1011.44 1012.19 1011.79 1011.82 1012.91 1013.66 1012.89 1011.82 1010.91 1010.23 1010.05 1010.01 1010.36 1010.76 1011.47 1012.71 1013.95 1014.60 1014.92 1015.16 1015.03 1015.33 1015.86 1016.32 1017.44 1018.34 1018.16 1017.55 1016.88 1017.03 1017.74 1019.11 1020.64 1021.88 1022.91 1023.22 1021.32
1008.48 1008.70 1009.48 1009.58 1009.62 1009.65 1010.25 1011.37 1012.76 1012.97 1012.80 1012.95 1012.86 1012.76 1011.92 1011.10 1010.39 1010.30 1010.32 1010.69 1011.04 1011.96 1013.35 1014.03 1015.05 1015.42 1015.60 1015.58 1015.81 1016.23 1016.67 1018.11 1018.66 1018.72 1018.31 1018.03 1018.01 1018.38 1019.26 1020.36 1021.95 1022.50 1022.09 1021.28
1008.00 1008.63 1009.17 1009.12 1009.35 1009.53 1010.05 1011.15 1012.11 1012.00 1013.07 1013.36 1012.93 1012.53 1012.05 1011.48 1011.01 1010.77 1010.84 1011.31 1011.75 1012.50 1013.98 1014.77 1015.45 1015.87 1016.09 1016.20 1016.48 1016.91 1017.53 1019.03 1019.60 1019.82 1019.51 1018.90 1018.73 1018.92 1019.44 1020.17 1020.71 1021.53 1021.08 1021.18
1007.81 1008.47 1008.62 1008.64 1008.95 1009.59 1009.97 1010.96 1011.71 1011.96 1012.32 1012.43 1012.90 1012.67 1012.27 1011.80 1011.57 1011.48 1011.72 1012.20 1012.83 1013.24 1014.08 1014.58 1015.51 1015.90 1016.37 1016.61 1017.22 1017.90 1018.82 1020.27 1020.82 1021.35 1020.96 1020.43 1019.71 1019.24 1019.37 1019.58 1019.93 1020.42 1020.66 1020.99
1007.84 1008.03 1008.02 1008.29 1008.57 1008.86 1009.77 1010.31 1010.50 1010.84 1012.80 1013.00 1013.17 1012.89 1012.28 1012.03 1011.96 1012.56 1012.46 1012.79 1013.63 1014.56 1014.93 1015.25 1015.61 1016.13 1016.45 1016.87 1017.75 1019.04 1020.14 1021.43 1022.81 1023.11 1022.52 1021.47 1020.44 1018.68 1018.62 1018.64 1018.90 1019.39 1020.49 1020.19
1007.59 1007.62 1007.78 1007.89 1008.40 1008.54 1008.92 1009.75 1010.36 1011.35 1013.28 1012.94 1012.66 1012.42 1012.18 1012.37 1012.55 1013.01 1013.51 1013.62 1014.12 1015.52 1015.64 1015.83 1016.35 1017.18 1017.87 1018.12 1018.89 1019.27 1021.12 1022.86 1024.06 1024.91 1023.92 1022.67 1019.31 1018.28 1018.01 1018.33 1018.78 1019.16 1019.70 1020.04
1007.53 1007.65 1007.87 1008.03 1008.22 1008.43 1008.86 1009.28 1010.18 1011.01 1012.92 1012.76 1012.39 1012.38 1012.73 1013.10 1013.47 1014.07 1014.42 1014.63 1014.88 1015.48 1016.50 1017.99 1019.32 1019.93 1019.85 1020.15 1020.47 1020.68 1021.13 1023.13 1025.45 1026.13 1025.11 1022.58 1019.57 1018.42 1018.03 1018.19 1018.78 1019.22 1019.86 1020.71
1007.49 1007.79 1007.95 1007.86 1007.64 1008.09 1008.61 1008.97 1009.62 1010.11 1011.53 1012.72 1012.13 1012.55 1012.77 1013.52 1014.29 1015.15 1015.40 1015.47 1015.67 1016.50 1018.65 1020.10 1021.18 1021.55 1021.19 1021.45 1021.51 1021.77 1022.44 1023.16 1024.71 1026.42 1025.99 1023.19 1019.35 1017.95 1017.56 1017.99 1018.82 1018.77 1019.75 1020.78
1007.83 1007.87 1007.85 1007.58 1007.58 1008.00 1008.63 1009.48 1009.35 1009.42 1011.41 1012.38 1012.21 1012.42 1012.70 1013.42 1014.40 1015.52 1015.94 1016.19 1016.86 1017.58 1019.96 1021.71 1022.91 1022.54 1021.84 1021.87 1022.02 1022.60 1023.49 1024.60 1025.20 1025.82 1024.81 1021.63 1018.76 1017.91 1017.72 1018.72 1018.79 1018.82 1019.55 1020.45
1008.03 1008.01 1007.89 1007.61 1007.41 1007.65 1007.87 1009.40 1009.04 1009.20 1011.63 1012.59 1012.35 1012.14 1012.42 1013.21 1013.82 1015.02 1016.02 1016.95 1017.73 1019.10 1020.97 1022.48 1023.14 1022.96 1022.27 1022.13 1021.79 1021.96 1022.62 1023.63 1024.44 1024.80 1023.90 1020.57 1017.98 1018.18 1018.08 1017.72 1018.06 1018.52 1019.36 1019.97
1008.37 1008.27 1008.08 1007.84 1007.62 1007.64 1007.89 1009.38 1009.39 1009.31 1010.86 1012.83 1012.63 1012.60 1012.52 1012.46 1012.62 1013.67 1015.39 1016.10 1016.95 1017.99 1020.23 1022.23 1022.86 1023.28 1023.02 1022.63 1022.24 1021.30 1021.68 1020.83 1021.21 1021.48 1019.77 1018.21 1017.47 1017.05 1016.84 1017.25 1017.80 1018.67 1019.16 1019.76
1008.54 1008.47 1008.20 1007.79 1007.53 1007.44 1007.51 1009.27 1009.82 1010.14 1012.24 1013.31 1013.05 1013.09 1012.80 1012.42 1012.61 1012.69 1013.96 1015.92 1016.23 1017.54 1018.31 1020.72 1022.09 1022.68 1022.47 1022.47 1021.69 1020.76 1019.89 1019.44 1019.93 1019.89 1018.16 1017.85 1017.51 1017.21 1017.32 1017.53 1017.89 1018.31 1018.84 1019.54
1008.76 1008.60 1008.37 1008.08 1007.81 1007.80 1007.87 1009.59 1010.47 1010.91 1012.96 1014.16 1014.32 1013.39 1013.45 1013.19 1012.69 1012.70 1013.04 1014.14 1015.88 1017.34 1018.68 1020.46 1021.65 1022.00 1021.32 1021.34 1020.65 1020.27 1019.03 1018.90 1018.65 1018.74 1017.91 1017.65 1017.26 1017.11 1017.21 1017.58 1017.90 1018.40 1018.93 1019.47
1009.12 1009.02 1008.94 1008.67 1008.61 1008.70 1009.02 1010.07 1011.14 1011.06 1011.90 1014.40 1015.14 1014.54 1014.43 1014.11 1013.62 1013.63 1013.89 1014.63 1016.02 1017.79 1019.53 1020.70 1021.17 1020.86 1021.19 1021.17 1020.87 1019.67 1017.92 1017.23 1017.44 1017.06 1016.49 1016.58 1016.62 1016.38 1016.95 1017.53 1017.97 1018.47 1019.01 1019.81
1009.63 1009.56 1009.46 1009.25 1009.14 1009.15 1009.73 1011.25 1011.59 1011.72 1011.80 1014.00 1015.98 1016.09 1015.67 1015.23 1014.96 1014.97 1015.37 1015.79 1016.58 1017.72 1018.91 1019.91 1020.01 1019.55 1019.83 1020.64 1020.24 1017.28 1016.40 1016.01 1015.92 1015.97 1015.88 1016.25 1016.31 1016.51 1016.98 1017.52 1018.08 1018.70 1019.60 1020.46
1010.10 1010.04 1009.80 1009.59 1009.60 1010.11 1011.50 1012.83 1013.14 1012.45 1012.25 1014.26 1016.93 1017.03 1016.64 1016.37 1016.29 1016.71 1016.86 1016.87 1017.43 1017.92 1019.07 1019.63 1019.80 1019.74 1019.62 1020.01 1019.13 1016.31 1015.94 1015.72 1015.57 1015.63 1016.11 1016.62 1016.66 1016.87 1017.25 1017.68 1018.52 1019.27 1020.07 1021.17
1010.62 1010.67 1010.64 1010.70 1010.88 1011.65 1012.47 1012.97 1012.79 1012.71 1013.38 1014.99 1017.05 1018.29 1017.86 1017.22 1017.89 1018.38 1018.27 1018.36 1018.44 1019.02 1019.46 1019.74 1019.87 1019.98 1019.88 1019.31 1017.12 1016.63 1016.25 1015.87 1015.70 1015.78 1016.04 1016.09 1016.52 1017.21 1018.13 1018.68 1019.52 1020.32 1021.66 1022.24
1011.06 1011.11 1011.18 1011.21 1012.17 1013.39 1013.82 1013.28 1013.11 1013.01 1014.26 1016.42 1017.79 1018.23 1018.41 1018.12 1018.78 1019.11 1019.12 1019.17 1019.68 1019.96 1019.87 1019.90 1020.01 1020.05 1019.50 1018.09 1017.61 1017.02 1016.65 1016.45 1016.25 1016.53 1016.76 1017.05 1017.62 1018.36 1018.90 1019.48 1021.11 1021.93 1022.37 1022.82
1011.48 1011.56 1012.39 1014.03 1014.45 1014.24 1013.83 1013.69 1014.03 1014.56 1016.02 1017.18 1018.40 1018.72 1018.80 1018.74 1019.38 1019.80 1020.09 1020.03 1020.20 1020.18 1020.13 1019.90 1019.76 1019.38 1018.80 1018.58 1017.94 1017.41 1016.91 1016.49 1016.59 1017.20 1018.09 1018.56 1019.31 1019.84 1020.42 1021.29 1021.69 1022.17 1022.63 1023.08
1012.58 1013.90 1014.70 1014.88 1014.51 1014.55 1015.43 1016.02 1016.44 1017.14 1017.71 1018.22 1018.80 1018.98 1018.92 1019.09 1019.52 1020.01 1020.28 1020.41 1020.48 1020.47 1020.25 1020.22 1019.99 1019.88 1019.71 1019.36 1018.90 1018.47 1017.96 1017.68 1017.95 1018.40 1019.50 1020.28 1020.84 1021.52 1022.02 1022.26 1022.40 1022.72 1023.04 1023.29
1013.66 1013.98 1014.85 1015.13 1015.63 1016.22 1016.91 1017.72 1018.12 1018.22 1018.82 1019.05 1019.10 1019.29 1019.36 1019.42 1019.32 1019.93 1020.49 1020.52 1020.69 1020.47 1020.30 1020.43 1020.16 1020.39 1020.24 1020.14 1020.36 1020.17 1019.86 1019.82 1020.10 1020.56 1020.96 1021.54 1021.93 1022.17 1022.40 1022.70 1022.98 1023.30 1023.47 1023.75
1013.93 1014.69 1016.07 1016.39 1017.43 1017.63 1017.94 1018.39 1018.84 1019.13 1019.28 1019.45 1019.59 1019.76 1019.88 1019.75 1019.85 1020.23 1020.45 1020.60 1020.60 1020.32 1020.46 1020.38 1020.55 1020.76 1020.99 1021.00 1021.12 1021.20 1021.18 1021.18 1021.41 1021.66 1021.91 1022.28 1022.53 1022.62 1022.95 1023.18 1023.30 1023.47 1023.74 1023.78
1015.73 1016.69 1017.54 1017.83 1018.38 1018.68 1018.77 1018.94 1019.15 1019.66 1019.72 1019.86 1019.98 1020.24 1020.27 1020.36 1020.32 1020.53 1020.55 1020.71 1020.69 1020.70 1020.93 1021.27 1021.27 1021.36 1021.57 1021.80 1021.96 1022.10 1022.43 1022.56 1022.44 1022.52 1022.61 1022.79 1022.99 1023.21 1023.47 1023.56 1023.63 1023.89 1023.74 1023.39
1017.13 1017.59 1018.36 1018.80 1019.16 1019.40 1019.60 1019.68 1019.83 1020.07 1020.11 1020.22 1020.40 1020.62 1020.68 1020.85 1020.94 1020.94 1021.13 1021.27 1021.22 1021.27 1021.64 1021.81 1022.13 1022.15 1022.21 1022.37 1022.77 1022.83 1022.95 1022.99 1022.93 1022.97 1023.04 1023.12 1023.28 1023.34 1023.39 1023.18 1023.21 1023.24 1023.25 1023.37
1018.16 1018.68 1019.24 1019.50 1019.63 1019.99 1020.09 1020.17 1020.29 1020.38 1020.52 1020.61 1020.80 1021.11 1021.28 1021.38 1021.31 1021.44 1021.38 1021.56 1021.77 1022.13 1022.13 1022.38 1022.58 1022.68 1022.67 1022.73 1022.90 1022.94 1023.02 1023.09 1023.15 1023.17 1023.29 1023.34 1023.36 1023.39 1023.36 1023.18 1022.98 1022.84 1022.89 1022.90
1018.90 1019.52 1019.44 1019.63 1019.85 1020.22 1020.46 1020.55 1020.74 1020.66 1020.99 1021.38 1021.51 1021.79 1021.96 1022.02 1021.85 1021.88 1021.80 1022.03 1022.16 1022.26 1022.23 1022.40 1022.59 1022.68 1022.66 1022.76 1022.90 1022.95 1023.14 1023.22 1023.23 1023.18 1023.19 1023.23 1023.19 1023.27 1023.40 1023.22 1022.65 1022.47 1022.25 1022.02
Thickness
5562 5573 5576 5576 5586 5592 5596 5596 5590 5613 5620 5602 5593 5604 5627 5645 5652 5660 5658 5656 5653 5640 5640 5628 5628 5625 5631 5634 5641 5632 5632 5611 5596 5622 5632 5638 5636 5628 5612 5576 5593 5554 5552 5577
5559 5570 5572 5575 5585 5594 5594 5590 5594 5611 5616 5588 5583 5616 5634 5644 5649 5651 5654 5651 5652 5650 5633 5621 5624 5623 5629 5631 5631 5629 5630 5609 5584 5600 5614 5627 5629 5625 5604 5590 5573 5578 5545 5570
5559 5567 5568 5576 5584 5591 5595 5591 5580 5593 5604 5606 5613 5621 5630 5636 5648 5650 5652 5649 5648 5641 5629 5625 5617 5619 5625 5629 5629 5625 5627 5609 5604 5591 5608 5613 5616 5618 5607 5597 5562 5573 5567 5588
5560 5564 5567 5576 5583 5588 5594 5591 5591 5604 5593 5604 5614 5622 5629 5631 5634 5648 5648 5644 5644 5637 5624 5621 5614 5618 5622 5625 5625 5625 5620 5605 5609 5604 5604 5613 5614 5611 5600 5597 5591 5578 5586 5581
5559 5562 5568 5576 5583 5585 5591 5591 5595 5601 5605 5614 5615 5615 5623 5629 5635 5641 5639 5633 5631 5636 5625 5625 5612 5616 5617 5620 5620 5615 5607 5587 5601 5598 5591 5590 5599 5601 5595 5592 5593 5585 5581 5575
5556 5562 5569 5577 5583 5588 5589 5597 5607 5611 5592 5601 5603 5609 5626 5629 5634 5630 5633 5630 5620 5615 5622 5623 5620 5618 5617 5619 5613 5602 5594 5576 5568 5571 5566 5575 5571 5596 5598 5602 5601 5590 5570 5579
5555 5562 5569 5578 5582 5591 5598 5602 5605 5600 5588 5602 5612 5621 5629 5628 5631 5624 5625 5626 5620 5617 5617 5618 5615 5608 5604 5605 5599 5603 5580 5557 5530 5539 5538 5544 5599 5603 5602 5598 5590 5585 5577 5572
5553 5561 5567 5575 5582 5588 5597 5603 5604 5600 5569 5602 5616 5617 5615 5616 5614 5614 5615 5617 5619 5615 5607 5584 5589 5567 5581 5581 5583 5583 5586 5548 5526 5522 5534 5566 5598 5596 5589 5587 5582 5575 5568 5557
5553 5558 5564 5573 5584 5592 5598 5604 5606 5609 5595 5597 5614 5610 5614 5606 5603 5603 5607 5609 5609 5602 5562 5560 5558 5566 5582 5576 5581 5573 5565 5549 5539 5513 5513 5526 5584 5594 5594 5587 5561 5572 5560 5545
5548 5556 5564 5575 5586 5592 5594 5597 5606 5612 5594 5599 5610 5607 5607 5606 5601 5592 5600 5604 5600 5593 5542 5528 5539 5561 5574 5566 5561 5543 5529 5515 5519 5471 5493 5541 5579 5586 5585 5557 5556 5559 5552 5539
5547 5555 5564 5576 5586 5591 5597 5594 5604 5609 5588 5595 5603 5608 5608 5605 5602 5589 5593 5586 5577 5555 5551 5536 5533 5515 5549 5557 5568 5556 5546 5527 5521 5495 5495 5542 5578 5575 5563 5565 5560 5553 5541 5531
5545 5554 5563 5573 5582 5589 5595 5591 5598 5605 5599 5590 5596 5600 5604 5608 5611 5599 5588 5594 5586 5578 5549 5530 5536 5519 5537 5534 5543 5564 5549 5555 5545 5548 5553 5573 5572 5576 5572 5558 5551 5539 5531 5523
5545 5552 5561 5572 5581 5589 5595 5587 5590 5594 5577 5579 5586 5589 5597 5603 5604 5606 5590 5575 5587 5579 5571 5554 5531 5536 5527 5530 5533 5557 5563 5561 5542 5553 5573 5563 5561 5561 5555 5548 5541 5532 5527 5518
5544 5552 5560 5569 5577 5584 5590 5582 5581 5583 5565 5550 5569 5583 5586 5591 5597 5600 5600 5593 5578 5566 5555 5535 5528 5520 5540 5521 5538 5535 5554 5554 5554 5537 5553 5552 5552 5546 5541 5535 5529 5524 5514 5505
5541 5548 5555 5562 5569 5575 5577 5574 5571 5577 5578 5549 5546 5568 5572 5577 5584 5586 5585 5581 5571 5555 5539 5529 5530 5518 5524 5517 5515 5528 5552 5555 5533 5538 5555 5551 5549 5540 5530 5522 5518 5510 5500 5486
5536 5543 5550 5557 5563 5568 5570 5560 5565 5568 5571 5556 5539 5546 5555 5560 5565 5567 5565 5564 5557 5548 5538 5526 5529 5539 5528 5517 5526 5555 5558 5554 5550 5550 5549 5540 5536 5526 5520 5515 5507 5496 5481 5468
5532 5538 5546 5552 5557 5558 5552 5549 5549 5556 5561 5543 5527 5522 5538 5543 5545 5541 5543 5543 5541 5541 5528 5518 5521 5517 5522 5509 5515 5555 5550 5548 5546 5542 5530 5525 5521 5515 5510 5503 5490 5478 5465 5451
5526 5531 5537 5541 5544 5543 5541 5541 5545 5549 5545 5532 5514 5508 5519 5528 5518 5519 5520 5516 5521 5519 5518 5512 5510 5508 5501 5517 5534 5535 5535 5535 5533 5525 5523 5520 5510 5500 5488 5480 5469 5455 5437 5428
5521 5525 5529 5532 5528 5523 5525 5533 5538 5541 5535 5511 5503 5513 5514 5513 5508 5503 5505 5506 5506 5500 5501 5501 5500 5497 5509 5521 5521 5521 5519 5520 5519 5511 5507 5501 5490 5479 5470 5459 5439 5427 5420 5412
5513 5517 5511 5502 5506 5513 5520 5521 5514 5511 5505 5502 5498 5498 5504 5507 5493 5494 5488 5488 5489 5484 5489 5491 5490 5500 5500 5496 5498 5500 5504 5504 5499 5490 5479 5473 5463 5453 5444 5430 5425 5416 5406 5396
5499 5491 5488 5495 5502 5504 5496 5490 5489 5496 5499 5493 5491 5489 5500 5491 5493 5484 5474 5476 5475 5487 5473 5484 5476 5486 5480 5476 5477 5478 5481 5482 5477 5469 5454 5444 5433 5421 5416 5411 5405 5396 5389 5380
5486 5487 5484 5486 5482 5478 5484 5479 5476 5483 5489 5479 5486 5484 5483 5478 5478 5474 5469 5476 5465 5474 5466 5472 5475 5467 5466 5462 5454 5454 5456 5452 5446 5438 5431 5423 5415 5409 5400 5392 5384 5377 5367 5355
5478 5474 5468 5474 5461 5477 5483 5483 5475 5477 5468 5469 5467 5470 5462 5464 5463 5459 5460 5467 5466 5455 5465 5467 5457 5452 5444 5442 5438 5433 5431 5426 5420 5416 5411 5402 5395 5388 5381 5372 5367 5355 5352 5346
5456 5457 5460 5459 5455 5451 5454 5460 5463 5453 5454 5454 5454 5453 5455 5448 5454 5448 5459 5447 5445 5456 5444 5426 5440 5433 5427 5421 5415 5413 5404 5394 5396 5392 5387 5381 5373 5368 5360 5352 5345 5337 5335 5333
5443 5444 5446 5439 5434 5433 5435 5437 5441 5439 5441 5443 5444 5442 5443 5441 5441 5436 5431 5430 5428 5426 5421 5422 5410 5405 5405 5399 5391 5390 5386 5377 5376 5374 5368 5358 5352 5348 5344 5340 5335 5331 5321 5314
5432 5430 5429 5426 5431 5429 5429 5429 5431 5428 5428 5428 5429 5430 5429 5424 5424 5421 5423 5421 5407 5393 5402 5395 5392 5386 5385 5383 5377 5373 5370 5365 5361 5357 5352 5346 5337 5332 5333 5326 5319 5312 5305 5301
5423 5418 5417 5420 5419 5421 5419 5418 5418 5417 5418 5420 5416 5400 5409 5405 5404 5407 5408 5400 5397 5393 5390 5385 5380 5378 5375 5370 5366 5359 5356 5352 5347 5344 5339 5334 5328 5317 5312 5310 5312 5307 5300 5292